Regional Weather Roundup
Issued by NWS Green Bay, WI

Home | Current Version | Previous Version | Graphics & Text | Print | Product List | Glossary Off
Versions: 1 2 3 4 5 6 7 8 9 10 11 12 13 14 15 16 17 18 19 20 21 22 23 24 25 26 27 28 29 30 31 32 33 34 35 36 37 38 39 40 41 42 43 44 45 46 47 48 49 50

000
ASUS43 KGRB 200410
RWRGRB

NORTH-CENTRAL AND NORTHEAST WISCONSIN REGIONAL WEATHER ROUNDUP
NATIONAL WEATHER SERVICE GREEN BAY WI
1100 PM CDT FRI SEP 19 2014

WIZ005-009-010>012-018-019-200500-
NORTH CENTRAL WISCONSIN

CITY           SKY/WX    TMP DP  RH WIND       PRES   REMARKS
IRONWOOD       CLOUDY    66  61  82 SW8G16    29.64S
MANITOWISH WTR CLOUDY    65  58  78 SW13      29.71S
ARBOR VITAE    CLOUDY    65  56  73 SW10      29.73R
EAGLE RIVER    CLOUDY    65  53  66 SW13G22   29.73R
LAND O LAKES   CLOUDY    65  55  69 SW9G16    29.73S
RHINELANDER    CLOUDY    64  54  69 SW16G26   29.75R
PHILLIPS       MOCLDY    64  58  80 SW14      29.71S
ANTIGO         LGT RAIN  61  54  78 SW15      29.79S
TOMAHAWK       CLOUDY    63  55  75 S5        29.75S
MERRILL        CLOUDY    64  56  74 SW8       29.76S
$$

WIZ013-073-200500-
NORTHEAST WISCONSIN

CITY           SKY/WX    TMP DP  RH WIND       PRES   REMARKS
IRON MOUNTAIN  CLOUDY    65  52  62 S10       29.72F
MARINETTE      CLOUDY    64  52  63 SW15G21   29.77R
OCONTO         CLOUDY    65  53  63 SW9       29.79R
$$

WIZ017-030-035>037-045-200500-
CENTRAL WISCONSIN

CITY           SKY/WX    TMP DP  RH WIND       PRES   REMARKS
MEDFORD        CLOUDY    63  56  78 S13G20    29.75S
WAUSAU         CLOUDY    65  54  67 S18G25    29.76S
MOSINEE        CLOUDY    63  54  72 S16       29.80S
MARSHFIELD     CLOUDY    65  55  70 SW14      29.78F
WISC RAPIDS    CLOUDY    66  54  65 S13       29.81F
STEVENS POINT  CLOUDY    63  52  67 S13       29.80F
WAUPACA        MOCLDY    66  54  65 S7        29.81F
SHAWANO        CLOUDY    66  53  61 S5        29.79S
CLINTONVILLE   MOCLDY    63  52  67 S9        29.79F
$$

WIZ038-039-048-051-200500-
FOX VALLEY

CITY           SKY/WX    TMP DP  RH WIND       PRES   REMARKS
NWS GREEN BAY  MOCLDY    66  52  60 S10       29.81F
APPLETON       CLOUDY    64  52  63 SW13      29.84S
OSHKOSH        PTCLDY    65  52  62 SW7       29.85R
FOND DU LAC    CLEAR     65  50  58 SW13      29.84S
$$

WIZ022-050-052-200500-
EAST CENTRAL WISCONSIN

CITY           SKY/WX    TMP DP  RH WIND       PRES   REMARKS
STURGEON BAY   CLOUDY    63  52  67 S16       29.81S
MANITOWOC      MOCLDY    64  51  62 S10       29.85S
SHEBOYGAN      PTCLDY    60  48  64 S10       29.85F
$$

LMZ563-521-522-541>543-200500-
LAKESHORE

STATION/POSITION TIME  TEMP    WIND        PRES    VSBY  WAVE
                       AIR SEA DIR/SP/G                  HT/PER
                 (UTC) (F)     (DEG/KT/KT) (MB)    (MI)  (FT/S)
SHEBOYGAN LKSHOR 0400   63 54  190/ 20/ 22 1011.0S
KEWAUNEE LKSHORE 0400   62     190/  9/ 12 1009.4F
NORTHPORT PIER   0400   62     160/  7/ 18 1008.5R
N MID LAKE BUOY  0400   62 58  210/ 25/ 31 1008.2F         9/ 8
S GREEN BAY BUOY 0400   62     VRB 16/ 17  1009.8
CHAMBERS ISLAND  0400   63     170/  8/ 20 1008.5R
MENOMINEE LKSHOR 0400   63     180/ 10/ 17 1009.0R
$$



USA.gov is the U.S. government's official web portal to all federal, state and local government web resources and services.